Location: Kitt Peak
(31.9639°N, 111.5992°W)
Time: 00:43:38
(UTC-07:00)

Tiangong 1 - Visible Passes

Search period start: 25 November 2017 00:00
Search period end: 05 December 2017 00:00
Orbit: 283 x 307 km, 42.8° (Epoch: 24 November)

Date Brightness Start Highest point End Pass type
(mag) Time Alt. Az. Time Alt. Az. Time Alt. Az.
25 Nov 2.9 18:50:52 10° WNW 18:52:29 17° NNW 18:52:29 17° NNW visible
26 Nov 3.6 18:58:11 10° NW 18:58:31 11° NNW 18:58:31 11° NNW visible
03 Dec 3.0 18:05:09 10° N 18:05:52 11° NNE 18:06:36 10° NNE visible
04 Dec 2.5 18:09:38 10° NNW 18:11:17 15° NNE 18:11:51 14° NE visible
